www.pogodaiklimat.ru

Погода и климат >> Архив погоды >> Аргентина >> Buenos Aires


ПОГОДА в Buenos Aires

  • Прогноз погоды в Buenos Aires
  • Монитор погоды в Buenos Aires
  • Климат города

АРХИВ ПОГОДЫ в Buenos Aires

Время (UTC), дата Ветер
(напр.,м/с)
 
Видим.   Явления Облачность Т
(С)
Тd
(С)
f
(%)
Тe
(С)
Тes
(С)
Комфортность P
(гПа)
Po
(гПа)
Тmin
(С)
Tmax
(С)
R
(мм)
R24
(мм)
S
(см)
15 14.06 Ю 2 10 км 3/1 600 м
[Cu hum Ci]
+11.2 +5.1 66 +10 +15 1030.5 1027.4
18 14.06 Ю 2 10 км 4/4 540 м
[Cu hum]
+12.2 +5.1 62 +12 +14 1028.7 1025.6
21 14.06 Ю 3 10 км 5/5 540 м
[Cu Sc]
+9.3 +3.9 69 +7 +7 1029.6 1026.5
00 15.06 Ю 2 10 км 1/1 450 м
[Sc]
+6.4 +3.6 82 +5 +5 1031.2 1028.1 +5.4 +12.5
03 15.06 Ю 1 10 км ясно +5.2 +2.8 84 +5 +5 1032.2 1029.2
06 15.06 Ю 1 10 км ясно +3.3 +2.6 95 +2 +2 1032.3 1029.2
09 15.06 Ю 1 10 км ясно +2.6 +1.8 94 +1 +1 1032.2 1029.2
12 15.06 штиль 0 10 км ясно +3.3 +3.1 99 +2 +3 1033.7 1030.5 +2.4 +6.6
15 15.06 ЮВ 2 10 км 1/1 600 м
[Cu hum]
+10.4 +4.2 65 +9 +14 1035.1 1032.0
18 15.06 штиль 0 10 км 5/5 750 м
[Cu hum]
+11.3 +3.4 58 +11 +14 1033.1 1030.0
21 15.06 ЮВ 2 10 км ясно +8.5 +3.7 72 +7 +7 1033.4 1030.2
00 16.06 В 1 10 км 3/0
[Cs]
+5.8 +3.4 85 +6 +6 1034.1 1030.9 +3.3 +12.3
03 16.06 ЮВ 1 10 км ясно +3.8 +2.8 93 +2 +2 1034.2 1031.2
06 16.06 З 1 10 км ясно +3.8 +2.8 93 +3 +3 1034.1 1031.0
09 16.06 штиль 0 10 км ясно +2.6 +2.3 98 +1 +1 1032.9 1029.7
12 16.06 штиль 0 10 км 1/0
[Cs]
+3.9 +3.2 95 +3 +4 1033.8 1030.6 +1.9 +5.8
15 16.06 СЗ 2 10 км 1/0
[Cs]
+9.8 +2.9 62 +9 +15 1033.0 1030.0
18 16.06 СЗ 4 10 км ясно +12.4 +4.6 59 +11 +14 1031.1 1028.0
21 16.06 СЗ 1 10 км ясно +10.2 +3.9 65 +10 +10 1029.6 1026.5
00 17.06 СЗ 2 10 км ясно +9.0 +4.0 71 +7 +7 1029.6 1026.5 +3.9 +13.1
03 17.06 СЗ 3 10 км ясно +8.5 +3.7 72 +6 +6 1029.7 1026.6
06 17.06 СЗ 3 10 км ясно +7.2 +3.7 78 +5 +5 1029.7 1026.6
09 17.06 СЗ 2 10 км ясно +5.6 +3.2 85 +3 +3 1029.0 1026.0
12 17.06 СЗ 4 10 км ясно +5.8 +2.4 79 +2 +3 1029.5 1026.4 +5.2 +9.0
15 17.06 СЗ 5 10 км ясно +13.0 +5.6 61 +11 +15 1029.6 1026.5
18 17.06 СЗ 4 10 км ясно +15.6 +5.7 52 +15 +18 1027.2 1024.1
21 17.06 СЗ 3 10 км 5/0
[Cs]
+12.9 +6.0 63 +12 +12 1026.8 1023.7
00 18.06 СЗ 2 10 км ясно +10.9 +6.0 72 +10 +10 1026.9 1023.8 +5.8 +16.1
03 18.06 СЗ 4 10 км ясно +10.2 +4.9 70 +8 +8 1026.7 1023.6
06 18.06 СЗ 2 10 км ясно +8.8 +3.8 71 +8 +8 1026.2 1023.2
09 18.06 СЗ 4 10 км ясно +7.8 +3.6 75 +5 +5 1026.1 1023.0
12 18.06 СЗ 4 10 км 4/0
[Ac trans Ci fib]
+8.2 +3.6 73 +5 +6 1027.3 1024.2 +7.5 +10.9
15 18.06 СЗ 2 10 км 4/0
[Ci fib]
+14.6 +4.6 51 +14 +20 1027.2 1024.1
18 18.06 СЗ 4 10 км 3/0
[Ci fib]
+18.6 +6.0 44 +19 +22 1023.9 1020.9
21 18.06 СЗ 2 10 км 3/0
[Cs]
+15.8 +4.6 47 +16 +16 1023.5 1020.4
00 19.06 СЗ 4 10 км ясно +13.4 +7.3 67 +12 +12 1023.1 1020.0 +8.2 +19.1
03 19.06 СЗ 4 10 км ясно +12.3 +7.6 73 +11 +11 1022.3 1019.3
06 19.06 С 3 10 км 3/0
[Ci]
+10.7 +7.6 81 +9 +9 1022.0 1019.0
09 19.06 СЗ 3 10 км 3/0
[Ci]
+9.5 +7.4 87 +7 +7 1020.5 1017.6
12 19.06 СЗ 3 10 км 9/0
[Cs]
+9.6 +5.9 78 +8 +8 1020.1 1017.0 +9.2 +13.6
15 19.06 З 2 10 км 9/0
[Cs]
+15.2 +7.9 62 +15 +20 1018.9 1016.0
18 19.06 СЗ 3 10 км 9/0
[Cs]
+18.9 +8.6 51 +20 +23 1016.9 1013.8
21 19.06 С 2 10 км 6/0
[Cs]
+15.0 +10.5 74 +15 +15 1016.2 1013.2
00 20.06 СЗ 2 10 км 4/0
[Cs]
+12.0 +9.5 85 +11 +11 1017.3 1014.2 +9.6 +19.0
03 20.06 СЗ 3 10 км ясно +13.8 +9.1 73 +13 +13 1018.1 1015.2
06 20.06 СЗ 2 10 км ясно +11.8 +9.2 84 +11 +11 1018.1 1015.2
09 20.06 СЗ 1 10 км ясно +9.2 +8.6 96 +9 +9 1018.1 1015.2
12 20.06 СЗ 2 10 км 4/0
[Cs]
+11.5 +9.9 90 +11 +11 1019.2 1016.2 +9.0 +13.8
15 20.06 СЗ 2 10 км 6/0
[Cs]
+18.2 +11.7 66 +19 +24 1018.0 1015.0
18 20.06 СЗ 2 10 км 6/0
[Cs]
+19.0 +11.9 63 +20 +24 1014.7 1011.7
21 20.06 СВ 1 10 км 6/4 600 м
[Sc Cs]
+16.2 +13.6 85 +17 +17 1012.5 1009.4
00 21.06 С 3 10 км 9/0
[Ac As]
+17.1 +14.9 87 +17 +17 1011.1 1008.1 +11.5 +19.2
03 21.06 СЗ 3 10 км 1/1 600 м
[Sc Ac As]
+18.2 +15.9 86 +19 +19 1010.4 1007.4
06 21.06 штиль 0 10 км в посл. час гроза {ливн. осадки} 9/9 600 м
[St]
+18.0 +16.7 92 +18 +18 1010.2 1007.3 0.2
09 21.06 ЮЗ 4 10 км ясно +14.7 +9.3 70 +14 +14 1012.7 1009.7
12 21.06 ЮЗ 3 10 км ясно +11.2 +4.1 62 +10 +10 1015.6 1012.6 +11.2 +18.2 0.2

 

Местоположение метеостанции Buenos Aires (Аргентина): широта -34.58 долгота -58.48 высота над уровнем моря 25 м.

В архиве по умолчанию представлена погода в Buenos Aires за последнюю неделю. Архивные данные за месяц целиком и за предыдущие месяцы, начиная с января 2011 года, Вы можете получить, выбрав интересующий диапазон дат из раскрывающегося списка и нажав кнопку "Ввод!".


*Определитесь, кто Вы:
робот инопланетянин человек

Внимание! Время в таблицах - всемирное. Для получения местного времени необходимо прибавить поправку, которая в Buenos Aires равна -3 ч.

Смотрите также архив погоды в соседних городах и на ближайших метеорологических станциях:

Погода в Buenos Aires Aeropuerto (Аргентина) (7 км)
Погода в Ezeiza (Аргентина) (26 км)
Погода в Colonia (Уругвай) (61 км)
Погода в La Plata (Аргентина) (68 км)
Погода в Mercedes (Уругвай) (153 км)
Погода в Las Flores (Аргентина) (175 км)
Погода в Gualeguaychu (Аргентина) (176 км)
Погода в Melilla (Уругвай) (205 км)
Погода в Dolores (Аргентина) (205 км)
Погода в Prado (Уругвай) (211 км)

Пояснения к столбцам:

Ветер - указаны скорость ветра в м/с - средняя за 10 мин, порывы в срок и между сроками (в фигурных скобках) и направление, откуда дует ветер: С - северный, СВ - северо-восточный, В - восточный, ЮВ - юго-восточный, Ю - южный, ЮЗ - юго-западный, З - западный, СЗ - северо-западный.
Видимость - горизонтальная дальность видимости в метрах или километрах. При видимости от 1 до 10 км при отсутствии осадков обычно наблюдается дымка, при ухудшении видимости до 1 км и менее - туман. В сухую погоду видимость может ухудшаться дымом, пылью или мглою.
Явления - указаны атмосферные явления, наблюдавшиеся в срок или в последний час перед сроком; фигурными скобками обозначены явления, наблюдавшиеся между сроками (за 1-3 часа до срока); квадратными скобками обозначены град или гололедные отложения с указанием их диаметра в мм.
Облачность - указаны через наклонную черту общая и нижняя облачность в баллах и высота нижней границы облаков в метрах; квадратными скобками обозначены формы облаков: Ci - перистые, Cs - перисто-слоистые, Cc - перисто-кучевые, Ac - высококучевые, As - высокослоистые, Sc - слоисто-кучевые, Ns - слоисто-дождевые, Cu - кучевые, Cb - кучево-дождевые. Подробнее классификацию облаков см. в Атласе облаков (PDF).
T - Температура воздуха - температура, измеренная на высоте 2 м над землей.
Td - Температура точки росы - температура, при понижении до которой содержащийся в воздухе водяной пар достигнет насыщения.
f - Относительная влажность воздуха - влажноcть воздуха, измеренная на высоте 2 м над землей.
Te - Эффективная температура - температура, которую ощущает одетый по сезону человек в тени. Характеристика душности погоды. При расчете учитывается влияние влажности воздуха и скорости ветра на теплоощущения человека.
Tes - Эффективная температура на солнце - температура, которую ощущает человек, с поправкой на солнечный нагрев. Характеристика знойности погоды. Зависит от высоты солнца над горизонтом, облачности и скорости ветра. Ночью, в пасмурную погоду, а также при ветре 12 м/с и более поправка равна нулю.
P - Атмосферное давление - приведенное к уровню моря атмосферное давление.
Po - Атмосферное давление - измеренное на уровне метеостанции атмосферное давление.
Tmin - Минимальная температура - минимум температуры воздуха на высоте 2 м над землей.
Tmax - Максимальная температура - максимум температуры воздуха на высоте 2 м над землей.
R - Количество осадков - Количество выпавших осадков за период времени, мм. При наведении курсора мыши на число - период времени, за который выпало указанное количество осадков.
R24 - Количество осадков - Количество выпавших осадков за 24 часа, мм.
S - Снежный покров - Высота снежного покрова, см. При наведении курсора мыши на число - состояние снежного покрова и степень покрытия местности в баллах.